K1RFS Weather Reports


time (UTC)temp
C
wind
direction
speed
KPH
gust
KPH
rain 1hr
cm
rain 24hr
cm
rain mn
cm
humidity
%
barometer
mb
20260502130647 6 184 0.0 0.0 0.00 0.00 0.00 45 1005.7
20260502130145 6 183 0.0 1.6 0.00 0.00 0.00 46 1005.7
20260502123630 6 183 0.0 0.0 0.00 0.00 0.00 45 1005.7
20260502123126 6 184 0.0 0.0 0.00 0.00 0.00 45 1005.5
20260502122623 6 183 0.0 0.0 0.00 0.00 0.00 44 1005.6
20260502122120 6 184 0.0 1.6 0.00 0.00 0.00 45 1005.5
20260502121618 6 183 0.0 1.6 0.00 0.00 0.00 45 1005.6
20260502121115 6 184 0.0 0.0 0.00 0.00 0.00 46 1005.5
20260502120611 6 183 0.0 0.0 0.00 0.00 0.00 46 1005.5
20260502120109 6 184 0.0 0.0 0.00 0.00 0.00 46 1005.5
20260502115607 6 183 0.0 0.0 0.00 0.00 0.00 45 1005.6
20260502115102 6 180 0.0 0.0 0.00 0.00 0.00 44 1005.6
20260502114559 6 183 0.0 1.6 0.00 0.00 0.00 44 1005.6
20260502114055 6 180 0.0 1.6 0.00 0.00 0.00 44 1005.5
20260502113553 6 184 0.0 0.0 0.00 0.00 0.00 44 1005.5
20260502113051 6 186 0.0 1.6 0.00 0.00 0.00 45 1005.6
20260502112549 6 181 0.0 0.0 0.00 0.00 0.00 46 1005.6
20260502112046 6 182 0.0 0.0 0.00 0.00 0.00 45 1005.6
20260502111544 6 183 0.0 0.0 0.00 0.00 0.00 46 1005.6
20260502111041 6 183 0.0 0.0 0.00 0.00 0.00 46 1005.6
20260502110538 6 185 0.0 1.6 0.00 0.00 0.00 47 1005.7
20260502110036 6 183 0.0 0.0 0.00 0.00 0.00 46 1005.6
20260502105533 6 183 0.0 0.0 0.00 0.00 0.00 46 1005.5
20260502105031 6 183 0.0 0.0 0.00 0.00 0.00 46 1005.6
20260502104527 6 183 0.0 0.0 0.00 0.00 0.00 45 1005.5
20260502104025 6 183 0.0 0.0 0.00 0.00 0.00 46 1005.4
20260502103522 6 182 0.0 0.0 0.00 0.00 0.00 46 1005.6
20260502103021 6 183 0.0 0.0 0.00 0.00 0.00 47 1005.6
20260502102517 7 183 0.0 0.0 0.00 0.00 0.00 46 1005.5
20260502102014 7 180 0.0 1.6 0.00 0.00 0.00 45 1005.5
20260502101512 7 182 0.0 0.0 0.00 0.00 0.00 45 1005.7
20260502101010 7 182 0.0 0.0 0.00 0.00 0.00 44 1005.3
20260502100508 7 184 0.0 1.6 0.00 0.00 0.00 44 1005.5
20260502091442 8 175 0.0 1.6 0.00 0.00 0.00 43 1005.3
20260502090939 8 177 1.6 1.6 0.00 0.00 0.00 43 1005.2
20260502090436 8 174 1.6 1.6 0.00 0.00 0.00 44 1005.4
20260502071331 7 182 0.0 0.0 0.00 0.00 0.00 49 1005.7
20260502070829 7 185 0.0 1.6 0.00 0.00 0.00 49 1005.8
20260502070326 7 185 1.6 1.6 0.00 0.00 0.00 50 1006.0
20260502065825 7 170 1.6 1.6 0.00 0.00 0.00 50 1006.0
20260502065323 7 183 0.0 1.6 0.00 0.00 0.00 50 1005.7
20260502064821 7 183 0.0 0.0 0.00 0.00 0.00 50 1005.8
20260502064318 7 183 0.0 0.0 0.00 0.00 0.00 49 1005.8
20260502063815 7 184 0.0 0.0 0.00 0.00 0.00 49 1005.7
20260502063313 7 181 0.0 0.0 0.00 0.00 0.00 50 1005.7
20260502062810 7 182 0.0 0.0 0.00 0.00 0.00 50 1005.8
20260502062308 7 185 0.0 0.0 0.00 0.00 0.00 49 1005.7
20260502061806 8 183 0.0 0.0 0.00 0.00 0.00 47 1005.7
20260502061304 8 184 0.0 0.0 0.00 0.00 0.00 44 1005.5
20260502060759 9 183 0.0 0.0 0.00 0.00 0.00 43 1005.4
20260502060254 9 183 0.0 0.0 0.00 0.00 0.00 43 1005.4
20260502055753 9 177 0.0 0.0 0.00 0.00 0.00 42 1005.5
20260502055250 10 181 0.0 0.0 0.00 0.00 0.00 41 1005.4
20260502054749 10 184 0.0 0.0 0.00 0.00 0.00 39 1005.4
20260502054246 10 181 0.0 0.0 0.00 0.00 0.00 38 1005.5
20260502053744 10 181 0.0 0.0 0.00 0.00 0.00 38 1005.4
20260502053241 10 180 0.0 1.6 0.00 0.00 0.00 37 1005.4
20260502052739 10 175 0.0 0.0 0.00 0.00 0.00 37 1005.4
20260502052237 10 156 1.6 1.6 0.00 0.00 0.00 38 1005.3
20260502051734 10 182 0.0 1.6 0.00 0.00 0.00 38 1005.3
20260502051233 10 177 0.0 0.0 0.00 0.00 0.00 38 1005.5
20260502050729 11 182 0.0 0.0 0.00 0.00 0.00 37 1005.5
20260502050225 11 183 0.0 0.0 0.00 0.00 0.00 37 1005.6
20260502045722 11 181 0.0 0.0 0.00 0.00 0.00 37 1005.5
20260502045219 11 179 0.0 0.0 0.00 0.00 0.00 36 1005.4
20260502044716 11 183 0.0 0.0 0.00 0.00 0.00 36 1005.6
20260502044212 11 180 0.0 1.6 0.00 0.00 0.00 36 1005.5
20260502043710 11 184 0.0 0.0 0.00 0.00 0.00 36 1005.5
20260502043207 11 177 1.6 1.6 0.00 0.00 0.00 37 1005.4
20260502042706 11 181 0.0 0.0 0.00 0.00 0.00 37 1005.4
20260502042204 11 187 0.0 0.0 0.00 0.00 0.00 37 1005.4
20260502041701 11 182 0.0 0.0 0.00 0.00 0.00 37 1005.4
20260502041158 11 183 0.0 0.0 0.00 0.00 0.00 36 1005.2
20260502040655 11 183 0.0 1.6 0.00 0.00 0.00 36 1005.3
20260502040152 11 181 0.0 1.6 0.00 0.00 0.00 36 1005.0
20260502035648 11 188 0.0 0.0 0.00 0.00 0.00 35 1005.2
20260502035145 12 183 0.0 0.0 0.00 0.00 0.00 35 1005.2
20260502034643 12 182 1.6 1.6 0.00 0.00 0.00 35 1005.2
20260502034141 12 178 0.0 1.6 0.00 0.00 0.00 34 1005.3
20260502033639 12 176 0.0 1.6 0.00 0.00 0.00 34 1005.2
20260502033136 12 179 0.0 0.0 0.00 0.00 0.00 34 1004.9
20260502032632 12 183 0.0 1.6 0.00 0.00 0.00 34 1004.9
20260502032129 12 186 1.6 1.6 0.00 0.00 0.00 33 1004.8
20260502031627 12 178 1.6 1.6 0.00 0.00 0.00 33 1004.8
20260502031124 12 219 1.6 1.6 0.00 0.00 0.00 33 1004.6
20260502030623 12 183 0.0 0.0 0.00 0.00 0.00 34 1004.6
20260502030121 12 184 1.6 1.6 0.00 0.00 0.00 33 1004.5
20260502025618 12 185 1.6 1.6 0.00 0.00 0.00 34 1004.5
20260502025116 12 203 1.6 1.6 0.00 0.00 0.00 34 1004.4
20260502024613 13 181 1.6 3.2 0.00 0.00 0.00 33 1004.4
20260502024111 13 216 3.2 3.2 0.00 0.00 0.00 33 1004.2
20260502023609 13 194 3.2 3.2 0.00 0.00 0.00 33 1004.4
20260502023106 13 189 1.6 1.6 0.00 0.00 0.00 33 1004.4
20260502022602 13 183 1.6 3.2 0.00 0.00 0.00 32 1004.2
20260502022100 14 307 4.8 4.8 0.00 0.00 0.00 31 1004.2
20260502021557 15 193 3.2 3.2 0.00 0.00 0.00 29 1004.4
20260502021054 15 180 3.2 3.2 0.00 0.00 0.00 29 1004.2
20260502020551 15 270 3.2 3.2 0.00 0.00 0.00 28 1004.4
20260502020048 15 203 3.2 3.2 0.00 0.00 0.00 27 1004.1
20260502015546 16 192 4.8 4.8 0.00 0.00 0.00 27 1004.2
20260502015042 16 221 6.4 8.0 0.00 0.00 0.00 27 1004.4
20260502014539 16 189 4.8 4.8 0.00 0.00 0.00 26 1004.0
20260502014036 16 231 6.4 8.0 0.00 0.00 0.00 26 1004.1
20260502013532 16 232 4.8 4.8 0.00 0.00 0.00 26 1004.2
20260502013028 16 186 1.6 3.2 0.00 0.00 0.00 26 1004.1
20260502012526 16 263 6.4 9.7 0.00 0.00 0.00 26 1003.9
20260502012023 17 181 4.8 4.8 0.00 0.00 0.00 26 1004.1
20260502011520 17 305 6.4 9.7 0.00 0.00 0.00 26 1003.9
20260502011016 17 284 6.4 9.7 0.00 0.00 0.00 26 1003.9
20260502010514 17 212 6.4 8.0 0.00 0.00 0.00 26 1004.0
20260502010010 17 183 4.8 4.8 0.00 0.00 0.00 26 1004.0
20260502005508 17 199 6.4 9.7 0.00 0.00 0.00 25 1003.9
20260502005005 17 185 6.4 9.7 0.00 0.00 0.00 26 1003.7
20260502004500 17 315 6.4 9.7 0.00 0.00 0.00 25 1004.0
20260502003958 18 251 4.8 9.7 0.00 0.00 0.00 25 1003.9
20260502003455 17 211 6.4 8.0 0.00 0.00 0.00 25 1003.9
20260502002951 17 184 3.2 3.2 0.00 0.00 0.00 25 1004.0
20260502002449 18 208 9.7 11.3 0.00 0.00 0.00 25 1004.0
20260502001946 18 184 8.0 9.7 0.00 0.00 0.00 24 1004.0
20260502001443 18 193 6.4 9.7 0.00 0.00 0.00 23 1003.9
20260502000941 18 217 4.8 8.0 0.00 0.00 0.00 24 1004.0
20260502000439 18 249 8.0 9.7 0.00 0.00 0.00 23 1003.9
20260501235935 18 187 3.2 3.2 0.00 0.00 0.00 23 1004.0
20260501235431 18 199 6.4 8.0 0.00 0.00 0.00 23 1004.1
20260501234926 18 200 4.8 4.8 0.00 0.00 0.00 23 1003.9
20260501234423 18 215 6.4 8.0 0.00 0.00 0.00 23 1004.1
20260501233922 18 3 9.7 12.9 0.00 0.00 0.00 23 1004.1
20260501233419 18 192 4.8 8.0 0.00 0.00 0.00 23 1004.1
20260501232914 19 186 4.8 8.0 0.00 0.00 0.00 22 1004.0
20260501232412 18 233 9.7 11.3 0.00 0.00 0.00 23 1004.1
20260501231909 18 203 4.8 8.0 0.00 0.00 0.00 23 1004.0
20260501231408 18 217 4.8 4.8 0.00 0.00 0.00 22 1004.0
20260501230905 18 191 1.6 3.2 0.00 0.00 0.00 22 1004.1
20260501230404 18 190 3.2 4.8 0.00 0.00 0.00 21 1004.1
20260501225901 19 238 8.0 9.7 0.00 0.00 0.00 21 1004.2
20260501225358 20 213 6.4 9.7 0.00 0.00 0.00 20 1004.1
20260501224854 19 209 4.8 8.0 0.00 0.00 0.00 21 1004.1
20260501224352 19 187 3.2 4.8 0.00 0.00 0.00 20 1004.1
20260501223848 20 219 3.2 4.8 0.00 0.00 0.00 21 1004.2
20260501223344 20 179 4.8 4.8 0.00 0.00 0.00 21 1004.1
20260501222840 20 172 3.2 4.8 0.00 0.00 0.00 21 1004.4
20260501222338 20 211 4.8 4.8 0.00 0.00 0.00 21 1004.4
20260501221834 19 190 4.8 4.8 0.00 0.00 0.00 22 1004.2
20260501221331 19 193 1.6 1.6 0.00 0.00 0.00 20 1004.1
20260501220830 19 187 4.8 8.0 0.00 0.00 0.00 21 1004.5
20260501220327 20 6 8.0 9.7 0.00 0.00 0.00 21 1004.4
20260501215823 21 188 0.0 1.6 0.00 0.00 0.00 20 1004.6
20260501215319 20 187 3.2 3.2 0.00 0.00 0.00 22 1004.4
20260501214815 18 188 1.6 1.6 0.00 0.00 0.00 22 1004.6
20260501214310 19 278 9.7 11.3 0.00 0.00 0.00 22 1004.6
20260501213807 21 187 1.6 1.6 0.00 0.00 0.00 21 1004.6
20260501213303 20 190 1.6 1.6 0.00 0.00 0.00 22 1004.8
20260501212759 19 262 3.2 4.8 0.00 0.00 0.00 22 1004.6
20260501212255 18 189 4.8 8.0 0.00 0.00 0.00 22 1004.7
20260501211753 19 220 3.2 3.2 0.00 0.00 0.00 22 1004.7
20260501211250 18 182 3.2 4.8 0.00 0.00 0.00 22 1004.7
20260501210747 20 178 3.2 3.2 0.00 0.00 0.00 21 1004.7
20260501210243 21 192 0.0 0.0 0.00 0.00 0.00 20 1004.7
20260501205740 21 191 1.6 1.6 0.00 0.00 0.00 21 1004.8
20260501205237 20 190 1.6 1.6 0.00 0.00 0.00 22 1004.8
20260501204734 18 187 1.6 1.6 0.00 0.00 0.00 22 1004.8
20260501204231 18 191 3.2 3.2 0.00 0.00 0.00 23 1004.9
20260501203727 18 189 0.0 0.0 0.00 0.00 0.00 21 1005.0
20260501203225 18 187 0.0 0.0 0.00 0.00 0.00 23 1004.9
20260501202721 20 190 3.2 3.2 0.00 0.00 0.00 21 1005.0
20260501202218 18 189 1.6 1.6 0.00 0.00 0.00 22 1005.2
20260501201715 18 194 0.0 0.0 0.00 0.00 0.00 21 1005.0
20260501201212 18 197 8.0 9.7 0.00 0.00 0.00 23 1004.8
20260501200708 17 188 1.6 1.6 0.00 0.00 0.00 23 1005.2
20260501200206 18 133 3.2 3.2 0.00 0.00 0.00 22 1005.0
20260501195703 18 328 3.2 3.2 0.00 0.00 0.00 21 1005.3
20260501195159 17 216 4.8 8.0 0.00 0.00 0.00 24 1005.3
20260501194655 17 188 1.6 3.2 0.00 0.00 0.00 22 1005.0
20260501194150 17 195 3.2 3.2 0.00 0.00 0.00 23 1005.3
20260501193648 17 206 8.0 9.7 0.00 0.00 0.00 23 1005.3
20260501193146 17 226 4.8 4.8 0.00 0.00 0.00 22 1005.0
20260501192643 17 183 1.6 1.6 0.00 0.00 0.00 22 1005.4
20260501192140 17 208 3.2 3.2 0.00 0.00 0.00 23 1005.4
20260501191638 16 188 3.2 3.2 0.00 0.00 0.00 22 1005.4
20260501191135 16 185 4.8 4.8 0.00 0.00 0.00 23 1005.6
20260501190632 16 194 0.0 1.6 0.00 0.00 0.00 23 1005.5
20260501190132 16 245 8.0 11.3 0.00 0.00 0.00 23 1005.5
20260501185628 17 158 8.0 11.3 0.00 0.00 0.00 24 1005.7
20260501185124 17 184 1.6 3.2 0.00 0.00 0.00 22 1005.5
20260501184620 16 189 0.0 0.0 0.00 0.00 0.00 24 1005.7
20260501184115 16 209 3.2 3.2 0.00 0.00 0.00 25 1005.6
20260501183612 16 216 4.8 8.0 0.00 0.00 0.00 25 1005.7
20260501183109 15 186 0.0 0.0 0.00 0.00 0.00 25 1005.8
20260501182605 15 43 6.4 8.0 0.00 0.00 0.00 25 1005.8
20260501182102 16 198 3.2 4.8 0.00 0.00 0.00 25 1005.8
20260501181559 16 189 1.6 1.6 0.00 0.00 0.00 26 1005.8
20260501181056 15 193 1.6 1.6 0.00 0.00 0.00 26 1005.8
20260501180554 15 187 0.0 1.6 0.00 0.00 0.00 25 1006.0
20260501180050 15 285 4.8 8.0 0.00 0.00 0.00 25 1006.1
20260501175547 15 317 6.4 9.7 0.00 0.00 0.00 26 1006.1
20260501175043 15 184 4.8 4.8 0.00 0.00 0.00 27 1006.3
20260501174541 15 185 3.2 3.2 0.00 0.00 0.00 27 1006.1
20260501174039 15 195 4.8 4.8 0.00 0.00 0.00 28 1006.3
20260501173535 14 181 0.0 1.6 0.00 0.00 0.00 29 1006.1
20260501173032 15 186 0.0 1.6 0.00 0.00 0.00 27 1006.1
20260501172527 15 189 3.2 4.8 0.00 0.00 0.00 28 1006.0
20260501172023 15 201 3.2 3.2 0.00 0.00 0.00 28 1006.2
20260501171520 14 194 1.6 1.6 0.00 0.00 0.00 30 1006.2
20260501171016 13 189 3.2 3.2 0.00 0.00 0.00 30 1006.3
20260501170513 13 181 3.2 3.2 0.00 0.00 0.00 30 1006.3
20260501170010 13 235 4.8 4.8 0.00 0.00 0.00 30 1006.3
20260501165508 13 197 4.8 4.8 0.00 0.00 0.00 30 1006.1
20260501165006 13 206 4.8 4.8 0.00 0.00 0.00 31 1006.2
20260501164504 13 184 1.6 1.6 0.00 0.00 0.00 30 1006.3
20260501164000 13 186 0.0 1.6 0.00 0.00 0.00 32 1006.0
20260501163456 13 187 1.6 3.2 0.00 0.00 0.00 34 1006.1
20260501162952 12 181 0.0 0.0 0.00 0.00 0.00 33 1006.1
20260501162449 13 184 0.0 1.6 0.00 0.00 0.00 33 1006.1
20260501161946 13 185 1.6 1.6 0.00 0.00 0.00 34 1006.1
20260501161443 13 185 1.6 1.6 0.00 0.00 0.00 35 1006.2
20260501160940 13 184 0.0 0.0 0.00 0.00 0.00 35 1006.1
20260501160436 12 197 0.0 1.6 0.00 0.00 0.00 35 1005.8
20260501155934 12 183 0.0 0.0 0.00 0.00 0.00 37 1006.0
20260501155431 12 185 0.0 1.6 0.00 0.00 0.00 37 1005.8
20260501154928 12 188 0.0 0.0 0.00 0.00 0.00 36 1006.0
20260501154425 12 185 1.6 1.6 0.00 0.00 0.00 36 1005.8
20260501153922 12 182 1.6 3.2 0.00 0.00 0.00 36 1005.8
20260501153420 12 184 0.0 0.0 0.00 0.00 0.00 35 1006.0
20260501152915 11 184 0.0 0.0 0.00 0.00 0.00 35 1006.0
20260501152412 11 184 0.0 1.6 0.00 0.00 0.00 36 1006.0
20260501151910 11 185 1.6 1.6 0.00 0.00 0.00 36 1005.6
20260501151406 11 182 1.6 1.6 0.00 0.00 0.00 36 1005.7
20260501150903 11 184 0.0 1.6 0.00 0.00 0.00 37 1006.0
20260501150358 10 185 0.0 1.6 0.00 0.00 0.00 39 1006.0
20260501145855 10 183 0.0 1.6 0.00 0.00 0.00 38 1005.7